星链-30392 (STARLINK-30392 )

导读

STARLINK-30392是美国太空探索技术公司SpaceX星链星座的成员,于2023年9月12日发射升空。星链项目旨在构建全球卫星互联网星座,为全球各地提供高速低延迟宽带网络服务,该卫星入轨后承担相关通信服务,进一步完善了星链星座的全球覆盖能力,也延续了美国太空星座的快速部署节奏。

基本信息
目录编号:
57855
目录名称:
STARLINK-30392
国际标识:
2023-141R
轨道中心:
EARTH
卫星名称:
星链-30392
卫星全名:
星链-30392 (STARLINK-30392 )
卫星状态:
在轨 (已飞行1088 天)
发射日期:
2023-09-12 UTC
国别 :
美国 (US)
星等 :
--
轨道信息
数据来源 国际轨道数据 AOE轨道数据
星历时间 2026-09-04T12:23:23+0800
4小时前
查看轨道信息
2026-09-01T01:00:00+0800
3天前
查看轨道信息
半长轴 6840.864km 6840.825km
偏心率 0.0001691 0.0001244
轨道倾角 53.160° 53.158°
近地点辐角 69.891° 76.392°
升交点赤经 173.800° 190.042°
平近点角 290.227° 160.195°
近地点 461.57km 461.837km
远地点 463.884km 463.539km
周期 93.848分钟 93.847分钟
每日圈数 15.343922 15.344053
详细信息
固有亮度:
5
最大亮度:
0.3
卫星平台:
Starlink v2.0 mini
覆盖范围:
全球
运营商:
太空探索技术公司
运营商所在国:
美国
制造商(研发单位):
太空探索技术公司
制造商所在国:
美国
使用方式:
暂无
卫星简介
星链(Starlink)计划是由太空探索技术公司(SpaceX)提出的一个巨型低轨卫星互联网星座项目,计划在2019年至2024年间在太空搭建由约1.2万颗卫星组成的“星链”网络,其中1584颗将部署在地球上空550千米处的近地轨道,并从2020年开始工作。该卫星仍在工作。
2D轨道图
3D轨道图
轨道高度分析图
轨道倾角分析图
轨道综合分析图
查看轨道综合分析图
交会数据列表
事件ID 空间交会对象 最接近时刻(TCA) 交会距离 交会风险概率(CRP) 交会风险指数(CRI) 操作
CDM_260905-004705-785506-285621
2026-09-05T
00:47:47+0000
0.738 km
远距离
6.332136E-5 中风险 0.71
CDM_260905-050405-785506-573921
2026-09-05T
05:04:34+0000
0.609 km
远距离
6.295718E-5 中风险 0.71
CDM_260904-191905-785506-287022
2026-09-04T
19:19:09+0000
0.865 km
远距离
3.824127E-5 中风险 0.67
CDM_260904-012005-785506-287023
2026-09-04T
01:20:33+0000
1.160 km
极远距离
1.39488E-5 中风险 0.58
CDM_260903-234605-785506-287023
2026-09-03T
23:46:46+0000
1.244 km
极远距离
1.09649E-5 中风险 0.56
CDM_260905-091005-785506-265621
2026-09-05T
09:10:22+0000
1.387 km
极远距离
8.647284E-6 低风险 0.54
CDM_260905-144505-211305-785521
2026-09-05T
14:45:06+0000
2.062 km
极远距离
2.348316E-6 低风险 0.42
CDM_260905-085905-785506-573921
2026-09-05T
08:59:02+0000
1.787 km
极远距离
1.953945E-6 低风险 0.41
CDM_260905-022105-785506-285621
2026-09-05T
02:21:34+0000
2.268 km
极远距离
1.869094E-6 低风险 0.4
CDM_260904-174505-785506-287022
2026-09-04T
17:45:21+0000
2.579 km
极远距离
1.469454E-6 低风险 0.38